EW8328 Weather Reports


time (UTC)temp
C
wind
direction
speed
KPH
gust
KPH
rain 1hr
cm
rain 24hr
cm
rain mn
cm
humidity
%
barometer
mb
20260504031853 7 97 1.6 4.8 0.00 0.25 0.00 92 1013.4
20260504031353 7 88 1.6 3.2 0.00 0.28 0.00 92 1013.5
20260504030853 7 33 0.0 3.2 0.00 0.28 0.00 92 1013.5
20260504030352 7 33 1.6 3.2 0.00 0.28 0.00 92 1013.5
20260504025853 7 33 1.6 8.0 0.00 0.28 0.00 92 1013.5
20260504025352 7 117 1.6 4.8 0.00 0.28 0.00 92 1013.4
20260504024852 7 117 1.6 3.2 0.00 0.28 0.00 92 1013.4
20260504024353 7 117 0.0 3.2 0.00 0.28 0.00 92 1013.4
20260504023853 7 117 3.2 8.0 0.00 0.28 0.00 92 1013.4
20260504023353 7 0 1.6 4.8 0.00 0.30 0.00 92 1013.4
20260504022852 7 41 0.0 8.0 0.00 0.30 0.00 92 1013.4
20260504022352 7 60 3.2 8.0 0.00 0.33 0.00 92 1013.3
20260504021853 7 62 1.6 4.8 0.00 0.33 0.00 92 1013.3
20260504020853 7 70 1.6 4.8 0.00 0.33 0.00 92 1013.3
20260504020353 7 348 3.2 4.8 0.00 0.33 0.00 92 1013.3
20260504015853 7 65 0.0 3.2 0.00 0.36 0.00 92 1013.4
20260504015352 7 9 1.6 4.8 0.00 0.36 0.00 92 1013.3
20260504014852 7 40 1.6 8.0 0.00 0.36 0.00 92 1013.3
20260504014352 7 15 3.2 9.7 0.00 0.36 0.00 92 1013.3
20260504013352 7 286 1.6 4.8 0.00 0.38 0.00 92 1013.3
20260504012353 7 43 1.6 4.8 0.00 0.38 0.00 92 1013.2
20260504011852 7 72 1.6 8.0 0.00 0.41 0.00 92 1013.1
20260504010852 7 8 3.2 8.0 0.00 0.43 0.00 92 1013.1
20260504010352 7 5 1.6 4.8 0.00 0.43 0.00 92 1013.1
20260504005853 7 3 1.6 3.2 0.00 0.46 0.00 92 1013.1
20260504005352 7 98 1.6 4.8 0.00 0.46 0.00 92 1013.0
20260504004852 7 9 1.6 4.8 0.00 0.48 0.00 92 1013.0
20260504003853 7 69 3.2 4.8 0.00 0.51 0.00 92 1013.0
20260504003352 7 142 1.6 4.8 0.00 0.53 0.00 93 1013.0
20260504002853 7 75 1.6 4.8 0.00 0.53 0.00 93 1013.0
20260504002352 7 72 0.0 3.2 0.00 0.56 0.00 93 1012.9
20260504001853 7 94 1.6 4.8 0.00 0.58 0.00 93 1012.9
20260504001353 7 121 3.2 9.7 0.00 0.61 0.00 93 1012.9
20260504000853 7 58 1.6 24.1 0.00 0.61 0.00 93 1012.9
20260504000354 7 33 1.6 4.8 0.00 0.61 0.00 93 1012.9
20260503235853 7 0 1.6 8.0 0.00 0.64 0.00 93 1013.0
20260503235352 7 31 1.6 8.0 0.00 0.66 0.00 93 1013.0
20260503234852 7 28 3.2 8.0 0.00 0.69 0.00 93 1013.0
20260503233852 7 9 1.6 4.8 0.00 0.71 0.00 94 1012.9
20260503233352 7 16 1.6 4.8 0.00 0.71 0.00 94 1013.0
20260503232853 7 351 1.6 4.8 0.00 0.71 0.00 93 1013.0
20260503232353 7 40 1.6 8.0 0.00 0.74 0.00 93 1012.9
20260503231853 7 355 1.6 4.8 0.00 0.76 0.00 93 1012.9
20260503231352 7 49 0.0 4.8 0.00 0.79 0.00 93 1012.9
20260503230937 7 54 1.6 12.9 0.00 0.79 0.00 93 1012.9
20260503230353 7 42 1.6 3.2 0.00 0.81 0.00 93 1012.9
20260503225852 7 11 3.2 4.8 0.00 0.84 0.84 93 1012.8
20260503225352 7 355 0.0 3.2 0.00 0.86 0.84 93 1012.8
20260503224853 7 355 0.0 4.8 0.00 0.89 0.84 93 1012.8
20260503223853 7 260 1.6 3.2 0.00 0.89 0.84 93 1012.7
20260503223352 7 144 1.6 3.2 0.00 0.89 0.84 93 1012.7
20260503222852 8 7 0.0 3.2 0.00 0.91 0.84 93 1012.7
20260503221853 8 15 1.6 9.7 0.00 0.94 0.84 93 1012.5
20260503221352 8 18 3.2 8.0 0.00 0.94 0.84 93 1012.5
20260503220353 8 352 1.6 4.8 0.00 0.99 0.84 92 1012.5
20260503215852 8 13 1.6 3.2 0.00 0.99 0.84 92 1012.4
20260503215352 8 25 1.6 4.8 0.00 0.99 0.84 92 1012.3
20260503214853 8 80 1.6 4.8 0.00 1.02 0.84 92 1012.4
20260503214352 8 15 3.2 4.8 0.00 1.04 0.84 92 1012.4
20260503213853 8 75 1.6 4.8 0.00 1.07 0.84 92 1012.3
20260503212352 8 125 1.6 3.2 0.00 1.12 0.84 92 1012.3
20260503211853 8 44 3.2 8.0 0.00 1.12 0.84 92 1012.4
20260503210854 8 96 1.6 4.8 0.00 1.14 0.84 92 1012.3
20260503210353 8 96 1.6 4.8 0.00 1.17 0.84 92 1012.2
20260503205852 8 105 0.0 3.2 0.00 1.17 0.84 92 1012.2
20260503204853 8 236 1.6 4.8 0.00 1.17 0.84 92 1012.1
20260503204352 8 330 3.2 4.8 0.00 1.17 0.84 92 1012.1
20260503203853 8 195 1.6 4.8 0.00 1.17 0.84 92 1012.0
20260503203353 8 198 3.2 8.0 0.00 1.17 0.84 92 1011.9
20260503201852 8 142 6.4 12.9 0.00 1.17 0.84 92 1011.7
20260503201352 8 319 1.6 4.8 0.00 1.17 0.84 92 1011.7
20260503200352 8 246 1.6 4.8 0.00 1.17 0.84 92 1011.6
20260503195853 8 227 3.2 4.8 0.00 1.17 0.84 92 1011.5
20260503195352 8 226 4.8 8.0 0.00 1.17 0.84 92 1011.3
20260503194852 8 345 1.6 8.0 0.00 1.17 0.84 92 1011.4
20260503194352 8 338 1.6 4.8 0.00 1.17 0.84 92 1011.3
20260503193852 8 255 3.2 8.0 0.00 1.17 0.84 92 1011.2
20260503193352 8 17 1.6 4.8 0.00 1.17 0.84 92 1011.2
20260503191853 8 164 3.2 12.9 0.00 1.17 0.84 92 1010.9
20260503191354 8 244 3.2 4.8 0.00 1.17 0.84 91 1010.9
20260503190853 8 9 0.0 3.2 0.00 1.17 0.84 91 1010.9
20260503190353 8 9 1.6 4.8 0.00 1.17 0.84 92 1010.8
20260503185853 8 28 1.6 8.0 0.00 1.17 0.84 92 1010.7
20260503185352 8 243 1.6 8.0 0.00 1.17 0.84 92 1010.7
20260503183853 8 86 1.6 3.2 0.00 1.17 0.84 92 1010.6
20260503183352 8 12 4.8 12.9 0.00 1.17 0.84 92 1010.5
20260503182853 8 75 1.6 9.7 0.00 1.17 0.84 92 1010.4
20260503182352 8 21 0.0 4.8 0.00 1.17 0.84 92 1010.4
20260503181852 8 41 1.6 9.7 0.00 1.17 0.84 92 1010.4
20260503181352 8 357 3.2 9.7 0.00 1.17 0.84 92 1010.4
20260503180852 9 28 3.2 9.7 0.00 1.17 0.84 92 1010.4
20260503180352 9 10 3.2 8.0 0.00 1.17 0.84 92 1010.3
20260503175852 9 49 3.2 8.0 0.00 1.17 0.84 92 1010.3
20260503175352 9 55 0.0 3.2 0.00 1.17 0.84 92 1010.2
20260503174852 9 47 1.6 9.7 0.00 1.17 0.84 92 1010.1
20260503173852 9 356 1.6 8.0 0.00 1.17 0.84 92 1010.1
20260503173352 9 306 1.6 4.8 0.00 1.17 0.84 92 1010.1
20260503172352 9 103 3.2 12.9 0.00 1.17 0.84 92 1010.0
20260503171352 9 8 3.2 9.7 0.00 1.17 0.84 92 1009.9
20260503170853 9 350 1.6 8.0 0.00 1.17 0.84 92 1010.0
20260503170352 9 354 4.8 11.3 0.00 1.17 0.84 92 1009.9
20260503150853 10 17 1.6 12.9 0.00 1.17 0.84 92 1009.5
20260503150352 10 348 4.8 11.3 0.00 1.17 0.84 91 1009.4
20260503131352 10 18 3.2 12.9 0.00 1.17 0.84 93 1009.1
20260503130852 10 23 3.2 9.7 0.00 1.17 0.84 93 1009.1
20260503130352 10 4 3.2 11.3 0.03 1.17 0.84 93 1009.1
20260503090352 10 46 4.8 12.9 0.08 1.09 0.74 94 1008.3
20260503081352 10 22 4.8 16.1 0.05 0.99 0.66 93 1008.3
20260503080852 10 13 6.4 20.9 0.05 0.99 0.66 93 1008.3
20260503080352 10 300 3.2 12.9 0.05 0.99 0.66 93 1008.3
20260503072852 10 38 6.4 19.3 0.03 0.99 0.64 93 1008.0
20260503072352 10 6 8.0 19.3 0.00 0.97 0.61 93 1007.9
20260503071852 10 10 4.8 16.1 0.00 0.97 0.61 93 1007.9
20260503071351 10 5 8.0 20.9 0.00 0.97 0.61 93 1007.8
20260503070851 10 1 6.4 19.3 0.00 0.97 0.61 93 1007.8
20260503070351 10 32 4.8 16.1 0.00 0.97 0.61 93 1007.8
20260503054852 10 339 3.2 20.9 0.00 0.97 0.61 93 1007.5
20260503052852 10 13 8.0 19.3 0.00 0.97 0.61 93 1007.4
20260503052351 10 357 3.2 16.1 0.00 0.97 0.61 93 1007.3
20260503051852 10 13 8.0 16.1 0.00 0.97 0.61 93 1007.3
20260503051352 10 359 8.0 14.5 0.00 0.97 0.61 93 1007.3
20260503050852 10 46 6.4 16.1 0.00 0.97 0.61 93 1007.4
20260503050352 10 30 3.2 14.5 0.00 0.97 0.61 93 1007.4
20260503045851 10 37 4.8 22.5 0.00 0.97 0.61 93 1007.4
20260503044851 10 71 3.2 16.1 0.03 0.97 0.61 93 1007.4
20260503044351 10 22 6.4 19.3 0.03 0.97 0.61 93 1007.4
20260503043852 10 36 8.0 14.5 0.03 0.97 0.61 93 1007.4
20260503043351 10 23 4.8 16.1 0.03 0.97 0.61 93 1007.4
20260503042351 10 73 4.8 14.5 0.05 0.97 0.61 93 1007.4
20260503041851 10 0 3.2 14.5 0.05 0.97 0.61 93 1007.4
20260503041351 10 26 6.4 19.3 0.05 0.97 0.61 93 1007.5
20260503040851 10 39 8.0 16.1 0.05 0.97 0.61 93 1007.4
20260503040352 10 11 4.8 11.3 0.05 0.97 0.61 93 1007.6
20260503035851 10 329 3.2 19.3 0.05 0.97 0.61 93 1007.6
20260503035351 10 338 4.8 14.5 0.05 0.97 0.61 93 1007.7
20260503034851 10 6 3.2 12.9 0.05 0.94 0.61 93 1007.9
20260503034351 10 9 1.6 8.0 0.05 0.94 0.61 93 1008.0
20260503032851 10 307 3.2 9.7 0.05 0.94 0.61 93 1008.1
20260503032351 10 23 3.2 12.9 0.05 0.91 0.58 93 1008.2